GW3736 Weather Reports


time (UTC)temp
C
wind
direction
speed
KPH
gust
KPH
rain 1hr
cm
rain 24hr
cm
rain mn
cm
humidity
%
barometer
mb
20260509200530 16 298 6.4 12.9 0.13 0.15 0.15 74 998.6
20260509195526 15 294 6.4 12.9 0.15 0.15 0.15 74 998.8
20260509194522 14 305 4.8 6.4 0.15 0.15 0.15 74 998.6
20260509193518 13 296 6.4 17.7 0.13 0.13 0.13 71 999.1
20260509192534 15 311 9.7 20.9 0.10 0.10 0.10 64 999.3
20260509191530 18 310 19.3 33.8 0.03 0.03 0.03 56 998.6
20260509190526 18 260 12.9 27.4 0.00 0.00 0.00 60 997.9
20260509185522 18 289 6.4 17.7 0.00 0.00 0.00 59 997.7
20260509184518 18 265 6.4 14.5 0.00 0.00 0.00 62 997.9
20260509183534 18 265 9.7 22.5 0.00 0.00 0.00 62 997.9
20260509182530 18 243 8.0 22.5 0.00 0.00 0.00 63 997.7
20260509181526 18 177 11.3 22.5 0.00 0.00 0.00 62 997.8
20260509180543 18 175 12.9 33.8 0.00 0.00 0.00 62 998.1
20260509175518 18 195 11.3 33.8 0.00 0.00 0.00 63 998.1
20260509174534 18 214 11.3 22.5 0.00 0.00 0.00 63 998.0
20260509173530 18 143 11.3 24.1 0.00 0.00 0.00 64 998.2
20260509172526 18 169 12.9 29.0 0.00 0.00 0.00 65 998.4
20260509171522 17 153 12.9 29.0 0.00 0.00 0.00 68 998.4
20260509170518 17 140 9.7 24.1 0.00 0.00 0.00 68 998.5
20260509165534 17 158 9.7 22.5 0.00 0.00 0.00 67 998.6
20260509164610 17 157 11.3 24.1 0.00 0.00 0.00 66 998.7
20260509163526 17 122 9.7 27.4 0.00 0.00 0.00 64 998.7
20260509162522 18 155 14.5 29.0 0.00 0.00 0.00 66 998.7
20260509161518 17 146 12.9 27.4 0.00 0.00 0.00 67 998.8
20260509160534 17 132 14.5 33.8 0.00 0.00 0.00 67 999.2
20260509155531 18 177 11.3 24.1 0.00 0.00 0.00 65 999.3
20260509154526 18 184 11.3 27.4 0.00 0.00 0.00 67 999.3
20260509153522 17 128 9.7 17.7 0.00 0.00 0.00 68 999.3
20260509152518 17 156 8.0 17.7 0.00 0.00 0.00 71 999.4
20260509151535 16 126 9.7 17.7 0.00 0.00 0.00 71 999.6
20260509150531 16 131 11.3 20.9 0.00 0.00 0.00 70 999.5
20260509145526 16 164 8.0 16.1 0.00 0.00 0.00 71 1000.0
20260509144542 16 119 11.3 22.5 0.00 0.00 0.00 72 999.7
20260509143518 16 231 8.0 20.9 0.00 0.00 0.00 74 1000.2
20260509142535 16 238 8.0 16.1 0.00 0.00 0.00 75 1000.0
20260509141531 15 120 9.7 22.5 0.00 0.00 0.00 76 1000.3
20260509140527 15 96 8.0 17.7 0.00 0.00 0.00 77 1000.5
20260509135523 15 0 4.8 14.5 0.00 0.00 0.00 78 1000.6
20260509134518 15 29 6.4 16.1 0.00 0.00 0.00 81 1000.6
20260509133534 14 50 6.4 16.1 0.00 0.00 0.00 81 1000.7
20260509132530 13 283 8.0 14.5 0.00 0.00 0.00 82 1000.9
20260509131526 13 354 6.4 12.9 0.00 0.00 0.00 83 1000.8
20260509130543 12 285 8.0 16.1 0.00 0.00 0.00 83 1000.8
20260509125519 12 317 4.8 11.3 0.00 0.00 0.00 83 1000.6
20260509124535 12 290 3.2 6.4 0.00 0.00 0.00 83 1000.7
20260509123551 12 215 8.0 17.7 0.00 0.00 0.00 84 1000.7
20260509122527 12 278 4.8 12.9 0.00 0.00 0.00 84 1000.8
20260509121523 11 283 6.4 14.5 0.00 0.00 0.00 84 1001.1
20260509120519 11 325 4.8 11.3 0.00 0.00 0.00 84 1001.2
20260509115534 11 300 4.8 11.3 0.00 0.00 0.00 84 1001.5
20260509114531 11 273 6.4 16.1 0.00 0.00 0.00 83 1001.4
20260509113527 11 259 4.8 14.5 0.00 0.00 0.00 83 1001.2
20260509112523 10 337 1.6 4.8 0.00 0.00 0.00 83 1001.3
20260509111518 10 312 3.2 6.4 0.00 0.00 0.00 83 1001.4
20260509110534 10 332 3.2 6.4 0.00 0.00 0.00 82 1001.3
20260509105530 10 327 1.6 4.8 0.00 0.00 0.00 82 1001.2
20260509104526 10 330 1.6 3.2 0.00 0.00 0.00 82 1001.2
20260509103522 10 339 1.6 3.2 0.00 0.00 0.00 82 1001.1
20260509102518 10 355 0.0 1.6 0.00 0.00 0.00 81 1001.0
20260509101534 10 346 0.0 6.4 0.00 0.00 0.00 81 1001.1
20260509100530 10 344 1.6 3.2 0.00 0.00 0.00 81 1001.1
20260509095526 10 323 1.6 4.8 0.00 0.00 0.00 80 1001.2
20260509094522 10 332 1.6 4.8 0.00 0.00 0.00 80 1001.1
20260509093518 10 327 1.6 4.8 0.00 0.00 0.00 80 1001.2
20260509092534 10 326 3.2 11.3 0.00 0.00 0.00 80 1001.1
20260509091531 10 334 1.6 3.2 0.00 0.00 0.00 79 1001.2
20260509090527 10 355 1.6 4.8 0.00 0.00 0.00 79 1001.3
20260509085522 10 328 3.2 6.4 0.00 0.00 0.00 79 1001.4
20260509084518 10 337 1.6 4.8 0.00 0.00 0.00 79 1001.6
20260509083554 10 329 1.6 4.8 0.00 0.00 0.00 79 1001.6
20260509082530 10 330 0.0 3.2 0.00 0.00 0.00 79 1001.6
20260509081526 10 333 1.6 4.8 0.00 0.00 0.00 79 1001.5
20260509080541 10 340 1.6 4.8 0.00 0.00 0.00 79 1001.4
20260509075538 10 337 1.6 4.8 0.00 0.00 0.00 79 1001.5
20260509074534 10 12 4.8 9.7 0.00 0.00 0.00 79 1001.7
20260509073530 10 312 3.2 6.4 0.00 0.00 0.00 79 1001.6
20260509072525 10 316 3.2 6.4 0.00 0.00 0.00 79 1001.6
20260509071521 10 319 1.6 4.8 0.00 0.00 0.00 79 1001.6
20260509070618 10 316 1.6 4.8 0.00 0.00 0.00 79 1001.8
20260509065534 10 290 3.2 9.7 0.00 0.00 0.00 79 1001.9
20260509064530 10 273 1.6 4.8 0.00 0.00 0.00 78 1002.0
20260509063525 10 238 1.6 4.8 0.00 0.00 0.00 78 1002.1
20260509062601 10 210 0.0 3.2 0.00 0.00 0.00 77 1002.1
20260509061517 11 194 1.6 4.8 0.00 0.00 0.00 77 1002.3
20260509060533 11 194 0.0 3.2 0.00 0.00 0.00 77 1002.5
20260509055710 11 194 0.0 3.2 0.00 0.00 0.00 76 1002.6
20260509054525 11 193 1.6 3.2 0.00 0.00 0.00 76 1002.7
20260509053521 11 222 1.6 3.2 0.00 0.00 0.00 76 1002.7
20260509052517 11 238 1.6 3.2 0.00 0.00 0.00 76 1002.7
20260509051533 12 240 3.2 6.4 0.00 0.00 0.00 76 1002.7
20260509050529 12 233 3.2 6.4 0.00 0.00 0.00 75 1002.9
20260509045525 12 242 4.8 11.3 0.00 0.00 0.00 75 1003.0
20260509044521 12 248 4.8 9.7 0.00 0.00 0.00 75 1003.0
20260509043517 12 246 4.8 9.7 0.00 0.00 0.00 75 1003.0
20260509042533 12 245 4.8 11.3 0.00 0.00 0.00 74 1003.0
20260509041529 12 243 3.2 9.7 0.00 0.00 0.00 74 1003.2
20260509040545 12 250 4.8 11.3 0.00 0.00 0.00 74 1003.2
20260509035521 12 254 4.8 9.7 0.00 0.00 0.00 74 1003.1
20260509034537 12 252 4.8 9.7 0.00 0.00 0.00 74 1003.1
20260509033533 12 245 3.2 9.7 0.00 0.00 0.00 74 1003.2
20260509032529 12 222 4.8 12.9 0.00 0.00 0.00 74 1003.3
20260509031525 12 231 4.8 11.3 0.00 0.00 0.00 74 1003.5
20260509030521 12 232 6.4 11.3 0.00 0.00 0.00 75 1003.5
20260509025537 12 227 6.4 12.9 0.00 0.00 0.00 76 1003.5
20260509024533 12 215 6.4 16.1 0.00 0.00 0.00 77 1003.6
20260509023528 12 174 6.4 20.9 0.00 0.00 0.00 77 1003.5
20260509022524 12 186 4.8 12.9 0.00 0.00 0.00 77 1003.4
20260509021539 11 164 3.2 6.4 0.00 0.00 0.00 76 1003.5
20260509020535 12 161 1.6 4.8 0.00 0.00 0.00 76 1003.4
20260509015531 12 150 4.8 9.7 0.00 0.00 0.00 76 1003.4
20260509014606 12 158 4.8 11.3 0.00 0.00 0.00 75 1003.3
20260509013522 12 164 4.8 11.3 0.00 0.00 0.00 75 1003.3
20260509012518 12 153 8.0 14.5 0.00 0.00 0.00 75 1003.2
20260509011534 12 160 8.0 20.9 0.00 0.00 0.00 74 1003.1
20260509010551 12 158 9.7 25.7 0.00 0.00 0.00 74 1003.1
20260509005526 12 157 8.0 20.9 0.00 0.00 0.00 74 1003.0
20260509004522 12 142 8.0 20.9 0.00 0.00 0.00 74 1002.8
20260509003538 13 139 8.0 12.9 0.00 0.00 0.00 73 1002.8
20260509002534 13 142 8.0 20.9 0.00 0.00 0.00 72 1002.8
20260509001530 13 144 4.8 14.5 0.00 0.00 0.00 71 1002.9
20260509000526 13 140 6.4 12.9 0.00 0.00 0.00 71 1002.9
20260508235522 13 152 6.4 16.1 0.00 0.00 0.00 70 1002.8
20260508234517 14 135 4.8 11.3 0.00 0.00 0.00 69 1002.8
20260508233533 14 146 8.0 14.5 0.00 0.00 0.00 69 1002.9
20260508232530 14 162 6.4 14.5 0.00 0.00 0.00 68 1003.0
20260508231525 15 153 9.7 24.1 0.00 0.00 0.00 67 1003.0
20260508230521 15 150 12.9 20.9 0.00 0.00 0.00 66 1002.9
20260508225517 15 157 12.9 25.7 0.00 0.00 0.00 64 1003.1
20260508224614 15 155 11.3 24.1 0.00 0.00 0.00 61 1003.0
20260508223529 15 112 8.0 22.5 0.00 0.00 0.00 62 1003.0
20260508222525 15 108 4.8 11.3 0.00 0.00 0.00 62 1003.2
20260508221521 15 115 8.0 16.1 0.00 0.00 0.00 63 1003.3
20260508220517 15 112 9.7 17.7 0.00 0.00 0.00 62 1003.3
20260508215533 15 115 11.3 17.7 0.00 0.00 0.00 63 1003.4
20260508214530 15 116 11.3 22.5 0.00 0.00 0.00 63 1003.4
20260508213526 15 118 12.9 22.5 0.00 0.00 0.00 63 1003.6
20260508212521 15 114 11.3 22.5 0.00 0.00 0.00 62 1003.7
20260508211518 15 115 14.5 27.4 0.00 0.00 0.00 62 1003.7
20260508210533 15 120 16.1 25.7 0.00 0.00 0.00 62 1003.7
20260508205549 15 121 16.1 25.7 0.00 0.00 0.00 61 1003.9
20260508204546 15 125 16.1 25.7 0.00 0.00 0.00 60 1004.0
20260508203521 15 119 20.9 35.4 0.00 0.00 0.00 59 1004.3
20260508202517 15 119 17.7 33.8 0.00 0.00 0.00 59 1004.4
20260508201533 15 116 17.7 33.8 0.00 0.00 0.00 58 1004.5